START_TIME,STEP,MOV.,P1,t_acc.,E44,t_acc.,A3,t_acc.,P10,t_acc.
1981-08-24 15:00:24.280 ,3,0,0.,1.2,0.,1.2,0.,1.2,0.,1.2
1981-08-24 15:00:25.480 ,3,0,1.,1.2,0.,1.2,0.,1.2,0.,1.2
1981-08-24 15:00:26.680 ,3,0,0.,1.2,0.,1.2,0.,1.2,0.,1.2
1981-08-24 15:00:27.880 ,3,0,1.,1.2,0.,1.2,0.,1.2,0.,1.2
1981-08-24 15:00:29.080 ,3,0,1.,1.2,0.,1.2,0.,1.2,0.,1.2
1981-08-24 15:00:30.280 ,3,0,0.,1.2,0.,1.2,0.,1.2,0.,1.2
1981-08-24 15:00:31.480 ,3,0,0.,1.2,0.,1.2,0.,1.2,0.,1.2
1981-08-24 15:00:32.680 ,3,0,0.,1.2,0.,1.2,0.,1.2,0.,1.2
1981-08-24 15:00:33.880 ,3,0,0.,1.2,0.,1.2,0.,1.2,0.,1.2
1981-08-24 15:00:35.080 ,3,0,0.,1.2,0.,1.2,0.,1.2,0.,1.2
1981-08-24 15:00:36.280 ,3,0,0.,1.2,0.,1.2,0.,1.2,0.,1.2
1981-08-24 15:00:37.480 ,3,0,1.,1.2,0.,1.2,0.,1.2,0.,1.2
1981-08-24 15:00:38.680 ,3,0,1.,1.2,0.,1.2,0.,1.2,0.,1.2
1981-08-24 15:00:39.880 ,3,0,0.,1.2,0.,1.2,0.,1.2,0.,1.2
1981-08-24 15:00:41.080 ,3,0,0.,1.2,0.,1.2,0.,1.2,0.,1.2
1981-08-24 15:00:42.280 ,3,0,1.,1.2,0.,1.2,0.,1.2,0.,1.2
1981-08-24 15:00:43.480 ,3,0,0.,1.2,0.,1.2,0.,1.2,0.,1.2
1981-08-24 15:00:44.680 ,3,0,1.,1.2,0.,1.2,0.,1.2,0.,1.2
1981-08-24 15:00:45.880 ,3,0,0.,1.2,0.,1.2,0.,1.2,0.,1.2
1981-08-24 15:00:47.080 ,3,0,0.,1.2,0.,1.2,0.,1.2,0.,1.2
1981-08-24 15:00:48.280 ,4,0,1.,1.2,0.,1.2,0.,1.2,0.,1.2
1981-08-24 15:00:49.480 ,4,0,0.,1.2,0.,1.2,0.,1.2,0.,1.2
1981-08-24 15:00:50.680 ,4,0,0.,1.2,0.,1.2,0.,1.2,0.,1.2
1981-08-24 15:00:51.880 ,4,0,0.,1.2,0.,1.2,0.,1.2,0.,1.2
1981-08-24 15:00:53.080 ,4,0,0.,1.2,0.,1.2,0.,1.2,0.,1.2
1981-08-24 15:00:54.280 ,4,0,0.,1.2,0.,1.2,0.,1.2,0.,1.2
1981-08-24 15:00:55.480 ,4,0,0.,1.2,0.,1.2,0.,1.2,0.,1.2
1981-08-24 15:00:56.680 ,4,0,2.,1.2,0.,1.2,0.,1.2,0.,1.2
1981-08-24 15:00:57.880 ,4,0,0.,1.2,0.,1.2,0.,1.2,0.,1.2
1981-08-24 15:00:59.080 ,4,0,0.,1.2,0.,1.2,0.,1.2,0.,1.2
1981-08-24 15:01:00.280 ,4,0,0.,1.2,0.,1.2,1.,1.2,0.,1.2
1981-08-24 15:01:01.480 ,4,0,0.,1.2,0.,1.2,0.,1.2,0.,1.2
1981-08-24 15:01:02.680 ,4,0,0.,1.2,0.,1.2,0.,1.2,0.,1.2
1981-08-24 15:01:03.880 ,4,0,1.,1.2,0.,1.2,0.,1.2,0.,1.2
1981-08-24 15:01:05.080 ,4,0,2.,1.2,0.,1.2,0.,1.2,0.,1.2
1981-08-24 15:01:06.280 ,4,0,0.,1.2,0.,1.2,0.,1.2,0.,1.2
1981-08-24 15:01:07.480 ,4,0,0.,1.2,0.,1.2,0.,1.2,0.,1.2
1981-08-24 15:01:08.680 ,4,0,0.,1.2,0.,1.2,0.,1.2,0.,1.2
1981-08-24 15:01:09.880 ,4,0,0.,1.2,0.,1.2,1.,1.2,0.,1.2
1981-08-24 15:01:11.080 ,4,0,0.,1.2,0.,1.2,0.,1.2,0.,1.2
1981-08-24 15:01:12.280 ,4,0,3.,1.2,0.,1.2,0.,1.2,0.,1.2
1981-08-24 15:01:13.480 ,4,0,1.,1.2,0.,1.2,0.,1.2,0.,1.2
1981-08-24 15:01:14.680 ,4,0,1.,1.2,0.,1.2,0.,1.2,0.,1.2
1981-08-24 15:01:15.880 ,4,0,1.,1.2,0.,1.2,0.,1.2,0.,1.2
1981-08-24 15:01:17.080 ,4,0,0.,1.2,0.,1.2,0.,1.2,0.,1.2
1981-08-24 15:01:18.280 ,4,0,0.,1.2,0.,1.2,0.,1.2,0.,1.2
1981-08-24 15:01:19.480 ,4,0,2.,1.2,0.,1.2,0.,1.2,0.,1.2
1981-08-24 15:01:20.680 ,4,0,1.,1.2,0.,1.2,0.,1.2,0.,1.2
1981-08-24 15:01:21.880 ,4,0,1.,1.2,0.,1.2,0.,1.2,0.,1.2
1981-08-24 15:01:23.080 ,4,0,0.,1.2,0.,1.2,0.,1.2,0.,1.2
1981-08-24 15:01:24.280 ,4,0,0.,1.2,0.,1.2,0.,1.2,0.,1.2
1981-08-24 15:01:25.480 ,4,0,0.,1.2,0.,1.2,0.,1.2,0.,1.2
1981-08-24 15:01:26.680 ,4,0,1.,1.2,0.,1.2,0.,1.2,0.,1.2
1981-08-24 15:01:27.880 ,4,0,0.,1.2,0.,1.2,0.,1.2,0.,1.2
1981-08-24 15:01:29.080 ,4,0,0.,1.2,0.,1.2,0.,1.2,0.,1.2
1981-08-24 15:01:30.280 ,4,0,0.,1.2,0.,1.2,0.,1.2,0.,1.2
1981-08-24 15:01:31.480 ,4,0,0.,1.2,0.,1.2,0.,1.2,0.,1.2
1981-08-24 15:01:32.680 ,4,0,0.,1.2,0.,1.2,0.,1.2,0.,1.2
1981-08-24 15:01:33.880 ,4,0,0.,1.2,0.,1.2,0.,1.2,0.,1.2
1981-08-24 15:01:35.080 ,4,0,0.,1.2,0.,1.2,0.,1.2,0.,1.2
1981-08-24 15:01:36.280 ,5,0,1.,1.2,0.,1.2,0.,1.2,0.,1.2
1981-08-24 15:01:37.480 ,5,0,0.,1.2,0.,1.2,0.,1.2,0.,1.2
1981-08-24 15:01:38.680 ,5,0,0.,1.2,0.,1.2,0.,1.2,0.,1.2
1981-08-24 15:01:39.880 ,5,0,1.,1.2,0.,1.2,0.,1.2,0.,1.2
1981-08-24 15:01:41.080 ,5,0,2.,1.2,0.,1.2,0.,1.2,0.,1.2
1981-08-24 15:01:42.280 ,5,0,0.,1.2,0.,1.2,0.,1.2,0.,1.2
1981-08-24 15:01:43.480 ,5,0,0.,1.2,0.,1.2,0.,1.2,0.,1.2
1981-08-24 15:01:44.680 ,5,0,1.,1.2,0.,1.2,0.,1.2,0.,1.2
1981-08-24 15:01:45.880 ,5,0,2.,1.2,0.,1.2,0.,1.2,0.,1.2
1981-08-24 15:01:47.080 ,5,0,0.,1.2,0.,1.2,0.,1.2,0.,1.2
1981-08-24 15:01:48.280 ,5,0,0.,1.2,0.,1.2,0.,1.2,0.,1.2
1981-08-24 15:01:49.480 ,5,0,0.,1.2,0.,1.2,0.,1.2,0.,1.2
1981-08-24 15:01:50.680 ,5,0,0.,1.2,0.,1.2,0.,1.2,0.,1.2
1981-08-24 15:01:51.880 ,5,0,0.,1.2,0.,1.2,0.,1.2,0.,1.2
1981-08-24 15:01:53.080 ,5,0,0.,1.2,0.,1.2,0.,1.2,0.,1.2
1981-08-24 15:01:54.280 ,5,0,0.,1.2,0.,1.2,0.,1.2,0.,1.2
1981-08-24 15:01:55.480 ,5,0,0.,1.2,0.,1.2,0.,1.2,0.,1.2
1981-08-24 15:01:56.680 ,5,0,0.,1.2,0.,1.2,0.,1.2,0.,1.2
1981-08-24 15:01:57.880 ,5,0,1.,1.2,0.,1.2,0.,1.2,0.,1.2
1981-08-24 15:01:59.080 ,5,0,1.,1.2,0.,1.2,0.,1.2,0.,1.2
1981-08-24 15:02:00.280 ,5,0,0.,1.2,0.,1.2,0.,1.2,0.,1.2
1981-08-24 15:02:01.480 ,5,0,0.,1.2,0.,1.2,0.,1.2,0.,1.2
1981-08-24 15:02:02.680 ,5,0,1.,1.2,0.,1.2,0.,1.2,0.,1.2
1981-08-24 15:02:03.880 ,5,0,1.,1.2,0.,1.2,0.,1.2,0.,1.2
1981-08-24 15:02:05.080 ,5,0,0.,1.2,0.,1.2,0.,1.2,0.,1.2
1981-08-24 15:02:06.280 ,5,0,0.,1.2,0.,1.2,0.,1.2,0.,1.2
1981-08-24 15:02:07.480 ,5,0,0.,1.2,0.,1.2,0.,1.2,0.,1.2
1981-08-24 15:02:08.680 ,5,0,0.,1.2,0.,1.2,0.,1.2,0.,1.2
1981-08-24 15:02:09.880 ,5,0,0.,1.2,0.,1.2,0.,1.2,0.,1.2
1981-08-24 15:02:11.080 ,5,0,0.,1.2,0.,1.2,0.,1.2,0.,1.2
1981-08-24 15:02:12.280 ,5,0,0.,1.2,0.,1.2,0.,1.2,0.,1.2
1981-08-24 15:02:13.480 ,5,0,0.,1.2,0.,1.2,0.,1.2,0.,1.2
1981-08-24 15:02:14.680 ,5,0,1.,1.2,0.,1.2,0.,1.2,0.,1.2
1981-08-24 15:02:15.880 ,5,0,0.,1.2,0.,1.2,0.,1.2,0.,1.2
1981-08-24 15:02:17.080 ,5,0,0.,1.2,0.,1.2,0.,1.2,0.,1.2
1981-08-24 15:02:18.280 ,5,0,2.,1.2,0.,1.2,0.,1.2,0.,1.2
1981-08-24 15:02:19.480 ,5,0,2.,1.2,0.,1.2,0.,1.2,0.,1.2
1981-08-24 15:02:20.680 ,5,0,1.,1.2,0.,1.2,0.,1.2,0.,1.2
1981-08-24 15:02:21.880 ,5,0,1.,1.2,0.,1.2,0.,1.2,0.,1.2
1981-08-24 15:02:23.080 ,5,0,0.,1.2,0.,1.2,0.,1.2,0.,1.2
1981-08-24 15:02:24.280 ,6,0,0.,1.2,0.,1.2,0.,1.2,0.,1.2
1981-08-24 15:02:25.480 ,6,0,0.,1.2,0.,1.2,0.,1.2,0.,1.2
1981-08-24 15:02:26.680 ,6,0,0.,1.2,0.,1.2,0.,1.2,0.,1.2
1981-08-24 15:02:27.880 ,6,0,0.,1.2,0.,1.2,0.,1.2,0.,1.2
1981-08-24 15:02:29.080 ,6,0,0.,1.2,0.,1.2,0.,1.2,0.,1.2
1981-08-24 15:02:30.280 ,6,0,1.,1.2,0.,1.2,0.,1.2,0.,1.2
1981-08-24 15:02:31.480 ,6,0,3.,1.2,0.,1.2,0.,1.2,0.,1.2
1981-08-24 15:02:32.680 ,6,0,2.,1.2,0.,1.2,0.,1.2,0.,1.2
1981-08-24 15:02:33.880 ,6,0,0.,1.2,0.,1.2,0.,1.2,0.,1.2
1981-08-24 15:02:35.080 ,6,0,0.,1.2,0.,1.2,0.,1.2,0.,1.2
1981-08-24 15:02:36.280 ,6,0,0.,1.2,0.,1.2,0.,1.2,0.,1.2
1981-08-24 15:02:37.480 ,6,0,0.,1.2,0.,1.2,0.,1.2,0.,1.2
1981-08-24 15:02:38.680 ,6,0,0.,1.2,0.,1.2,0.,1.2,0.,1.2
1981-08-24 15:02:39.880 ,6,0,0.,1.2,0.,1.2,0.,1.2,0.,1.2
1981-08-24 15:02:41.080 ,6,0,2.,1.2,0.,1.2,0.,1.2,0.,1.2
1981-08-24 15:02:42.280 ,6,0,1.,1.2,0.,1.2,0.,1.2,0.,1.2
1981-08-24 15:02:43.480 ,6,0,1.,1.2,0.,1.2,0.,1.2,0.,1.2
1981-08-24 15:02:44.680 ,6,0,0.,1.2,0.,1.2,0.,1.2,0.,1.2
1981-08-24 15:02:45.880 ,6,0,0.,1.2,0.,1.2,0.,1.2,0.,1.2
1981-08-24 15:02:47.080 ,6,0,1.,1.2,0.,1.2,0.,1.2,0.,1.2
1981-08-24 15:02:48.280 ,6,0,1.,1.2,0.,1.2,0.,1.2,0.,1.2
1981-08-24 15:02:49.480 ,6,0,1.,1.2,0.,1.2,0.,1.2,0.,1.2
1981-08-24 15:02:50.680 ,6,0,0.,1.2,0.,1.2,0.,1.2,0.,1.2
1981-08-24 15:02:51.880 ,6,0,0.,1.2,0.,1.2,0.,1.2,0.,1.2
1981-08-24 15:02:53.080 ,6,0,1.,1.2,0.,1.2,0.,1.2,0.,1.2
1981-08-24 15:02:54.280 ,6,0,0.,1.2,0.,1.2,0.,1.2,0.,1.2
1981-08-24 15:02:55.480 ,6,0,0.,1.2,0.,1.2,0.,1.2,0.,1.2
1981-08-24 15:02:56.680 ,6,0,0.,1.2,0.,1.2,0.,1.2,0.,1.2
1981-08-24 15:02:57.880 ,6,0,0.,1.2,0.,1.2,0.,1.2,0.,1.2
1981-08-24 15:02:59.080 ,6,0,0.,1.2,0.,1.2,0.,1.2,0.,1.2
1981-08-24 15:03:00.280 ,6,0,0.,1.2,0.,1.2,1.,1.2,0.,1.2
1981-08-24 15:03:01.480 ,6,0,2.,1.2,0.,1.2,0.,1.2,0.,1.2
1981-08-24 15:03:02.680 ,6,0,1.,1.2,0.,1.2,0.,1.2,0.,1.2
1981-08-24 15:03:03.880 ,6,0,0.,1.2,0.,1.2,0.,1.2,0.,1.2
1981-08-24 15:03:05.080 ,6,0,0.,1.2,0.,1.2,0.,1.2,0.,1.2
1981-08-24 15:03:06.280 ,6,0,2.,1.2,0.,1.2,0.,1.2,0.,1.2
1981-08-24 15:03:07.480 ,6,0,1.,1.2,0.,1.2,0.,1.2,0.,1.2
1981-08-24 15:03:08.680 ,6,0,0.,1.2,0.,1.2,0.,1.2,0.,1.2
1981-08-24 15:03:09.880 ,6,0,0.,1.2,0.,1.2,0.,1.2,0.,1.2
1981-08-24 15:03:11.080 ,6,0,0.,1.2,0.,1.2,0.,1.2,0.,1.2
1981-08-24 15:03:12.280 ,7,0,1.,1.2,0.,1.2,0.,1.2,0.,1.2
1981-08-24 15:03:13.480 ,7,0,0.,1.2,0.,1.2,0.,1.2,0.,1.2
1981-08-24 15:03:14.680 ,7,0,0.,1.2,0.,1.2,0.,1.2,0.,1.2
1981-08-24 15:03:15.880 ,7,0,0.,1.2,0.,1.2,0.,1.2,0.,1.2
1981-08-24 15:03:17.080 ,7,0,0.,1.2,0.,1.2,0.,1.2,0.,1.2
1981-08-24 15:03:18.280 ,7,0,0.,1.2,0.,1.2,1.,1.2,0.,1.2
1981-08-24 15:03:19.480 ,7,0,0.,1.2,0.,1.2,4.,1.2,0.,1.2
1981-08-24 15:03:20.680 ,7,0,0.,1.2,0.,1.2,6.,1.2,0.,1.2
1981-08-24 15:03:21.880 ,7,0,0.,1.2,0.,1.2,2.,1.2,0.,1.2
1981-08-24 15:03:23.080 ,7,0,0.,1.2,0.,1.2,2.,1.2,0.,1.2
1981-08-24 15:03:24.280 ,7,0,0.,1.2,0.,1.2,5.,1.2,0.,1.2
1981-08-24 15:03:25.480 ,7,0,0.,1.2,0.,1.2,4.,1.2,0.,1.2
1981-08-24 15:03:26.680 ,7,0,0.,1.2,0.,1.2,9.,1.2,0.,1.2
1981-08-24 15:03:27.880 ,7,0,0.,1.2,0.,1.2,5.,1.2,0.,1.2
1981-08-24 15:03:29.080 ,7,0,0.,1.2,0.,1.2,3.,1.2,0.,1.2
1981-08-24 15:03:30.280 ,7,0,0.,1.2,0.,1.2,7.,1.2,0.,1.2
1981-08-24 15:03:31.480 ,7,0,0.,1.2,0.,1.2,4.,1.2,0.,1.2
1981-08-24 15:03:32.680 ,7,0,0.,1.2,0.,1.2,7.,1.2,0.,1.2
1981-08-24 15:03:33.880 ,7,0,0.,1.2,0.,1.2,2.,1.2,0.,1.2
1981-08-24 15:03:35.080 ,7,0,0.,1.2,0.,1.2,6.,1.2,0.,1.2
1981-08-24 15:03:36.280 ,7,0,0.,1.2,0.,1.2,3.,1.2,0.,1.2
1981-08-24 15:03:37.480 ,7,0,0.,1.2,0.,1.2,3.,1.2,0.,1.2
1981-08-24 15:03:38.680 ,7,0,0.,1.2,0.,1.2,0.,1.2,0.,1.2
1981-08-24 15:03:39.880 ,7,0,0.,1.2,0.,1.2,4.,1.2,0.,1.2
1981-08-24 15:03:41.080 ,7,0,0.,1.2,0.,1.2,5.,1.2,0.,1.2
1981-08-24 15:03:42.280 ,7,0,0.,1.2,0.,1.2,4.,1.2,0.,1.2
1981-08-24 15:03:43.480 ,7,0,0.,1.2,0.,1.2,7.,1.2,0.,1.2
1981-08-24 15:03:44.680 ,7,0,0.,1.2,0.,1.2,6.,1.2,0.,1.2
1981-08-24 15:03:45.880 ,7,0,0.,1.2,0.,1.2,4.,1.2,0.,1.2
1981-08-24 15:03:47.080 ,7,0,0.,1.2,0.,1.2,5.,1.2,0.,1.2
1981-08-24 15:03:48.280 ,7,0,0.,1.2,0.,1.2,6.,1.2,0.,1.2
1981-08-24 15:03:49.480 ,7,0,0.,1.2,0.,1.2,3.,1.2,0.,1.2
1981-08-24 15:03:50.680 ,7,0,0.,1.2,0.,1.2,8.,1.2,0.,1.2
1981-08-24 15:03:51.880 ,7,0,0.,1.2,0.,1.2,7.,1.2,0.,1.2
1981-08-24 15:03:53.080 ,7,0,0.,1.2,0.,1.2,4.,1.2,0.,1.2
1981-08-24 15:03:54.280 ,7,0,0.,1.2,0.,1.2,4.,1.2,0.,1.2
1981-08-24 15:03:55.480 ,7,0,0.,1.2,0.,1.2,8.,1.2,0.,1.2
1981-08-24 15:03:56.680 ,7,0,0.,1.2,0.,1.2,2.,1.2,0.,1.2
1981-08-24 15:03:57.880 ,7,0,0.,1.2,0.,1.2,3.,1.2,0.,1.2
1981-08-24 15:03:59.080 ,7,0,0.,1.2,0.,1.2,4.,1.2,0.,1.2
1981-08-24 15:04:00.280 ,7,0,0.,1.2,0.,1.2,6.,1.2,0.,1.2
1981-08-24 15:04:01.480 ,7,0,0.,1.2,0.,1.2,3.,1.2,0.,1.2
1981-08-24 15:04:02.680 ,7,0,0.,1.2,0.,1.2,4.,1.2,0.,1.2
1981-08-24 15:04:03.880 ,7,0,0.,1.2,0.,1.2,3.,1.2,0.,1.2
1981-08-24 15:04:05.080 ,7,0,0.,1.2,0.,1.2,10.,1.2,0.,1.2
1981-08-24 15:04:06.280 ,7,0,0.,1.2,0.,1.2,8.,1.2,0.,1.2
1981-08-24 15:04:07.480 ,7,0,0.,1.2,0.,1.2,9.,1.2,0.,1.2
1981-08-24 15:04:08.680 ,7,0,0.,1.2,0.,1.2,2.,1.2,0.,1.2
1981-08-24 15:04:09.880 ,7,0,0.,1.2,0.,1.2,4.,1.2,0.,1.2
1981-08-24 15:04:11.080 ,7,0,0.,1.2,0.,1.2,3.,1.2,0.,1.2
1981-08-24 15:04:12.280 ,7,0,0.,1.2,0.,1.2,3.,1.2,0.,1.2
1981-08-24 15:04:13.480 ,7,0,0.,1.2,0.,1.2,7.,1.2,0.,1.2
1981-08-24 15:04:14.680 ,7,0,0.,1.2,0.,1.2,2.,1.2,0.,1.2
1981-08-24 15:04:15.880 ,7,0,0.,1.2,0.,1.2,4.,1.2,0.,1.2
1981-08-24 15:04:17.080 ,7,0,0.,1.2,0.,1.2,5.,1.2,0.,1.2
1981-08-24 15:04:18.280 ,7,0,0.,1.2,0.,1.2,7.,1.2,0.,1.2
1981-08-24 15:04:19.480 ,7,0,0.,1.2,0.,1.2,5.,1.2,0.,1.2
1981-08-24 15:04:20.680 ,7,0,0.,1.2,0.,1.2,5.,1.2,0.,1.2
1981-08-24 15:04:21.880 ,7,0,0.,1.2,0.,1.2,3.,1.2,0.,1.2
1981-08-24 15:04:23.080 ,7,0,0.,1.2,0.,1.2,4.,1.2,0.,1.2
1981-08-24 15:04:24.280 ,6,0,0.,1.2,0.,1.2,5.,1.2,0.,1.2
1981-08-24 15:04:25.480 ,6,0,0.,1.2,0.,1.2,5.,1.2,0.,1.2
1981-08-24 15:04:26.680 ,6,0,0.,1.2,0.,1.2,5.,1.2,0.,1.2
1981-08-24 15:04:27.880 ,6,0,0.,1.2,0.,1.2,7.,1.2,0.,1.2
1981-08-24 15:04:29.080 ,6,0,0.,1.2,0.,1.2,9.,1.2,0.,1.2
1981-08-24 15:04:30.280 ,6,0,1.,1.2,0.,1.2,4.,1.2,0.,1.2
1981-08-24 15:04:31.480 ,6,0,0.,1.2,0.,1.2,0.,1.2,0.,1.2
1981-08-24 15:04:32.680 ,6,0,0.,1.2,0.,1.2,0.,1.2,0.,1.2
1981-08-24 15:04:33.880 ,6,0,1.,1.2,0.,1.2,0.,1.2,0.,1.2
1981-08-24 15:04:35.080 ,6,0,1.,1.2,0.,1.2,0.,1.2,0.,1.2
1981-08-24 15:04:36.280 ,6,0,0.,1.2,0.,1.2,0.,1.2,0.,1.2
1981-08-24 15:04:37.480 ,6,0,0.,1.2,0.,1.2,0.,1.2,0.,1.2
1981-08-24 15:04:38.680 ,6,0,0.,1.2,0.,1.2,0.,1.2,0.,1.2
1981-08-24 15:04:39.880 ,6,0,0.,1.2,0.,1.2,0.,1.2,0.,1.2
1981-08-24 15:04:41.080 ,6,0,2.,1.2,0.,1.2,0.,1.2,0.,1.2
1981-08-24 15:04:42.280 ,6,0,0.,1.2,0.,1.2,0.,1.2,0.,1.2
1981-08-24 15:04:43.480 ,6,0,0.,1.2,0.,1.2,0.,1.2,0.,1.2
1981-08-24 15:04:44.680 ,6,0,1.,1.2,0.,1.2,0.,1.2,0.,1.2
1981-08-24 15:04:45.880 ,6,0,0.,1.2,0.,1.2,0.,1.2,0.,1.2
1981-08-24 15:04:47.080 ,6,0,1.,1.2,0.,1.2,0.,1.2,0.,1.2
1981-08-24 15:04:48.280 ,5,0,1.,1.2,0.,1.2,0.,1.2,0.,1.2
1981-08-24 15:04:49.480 ,5,0,1.,1.2,0.,1.2,0.,1.2,0.,1.2
1981-08-24 15:04:50.680 ,5,0,0.,1.2,0.,1.2,0.,1.2,0.,1.2
1981-08-24 15:04:51.880 ,5,0,0.,1.2,0.,1.2,0.,1.2,0.,1.2
1981-08-24 15:04:53.080 ,5,0,0.,1.2,0.,1.2,0.,1.2,0.,1.2
1981-08-24 15:04:54.280 ,5,0,0.,1.2,0.,1.2,0.,1.2,0.,1.2
1981-08-24 15:04:55.480 ,5,0,0.,1.2,0.,1.2,0.,1.2,0.,1.2
1981-08-24 15:04:56.680 ,5,0,1.,1.2,0.,1.2,0.,1.2,0.,1.2
1981-08-24 15:04:57.880 ,5,0,0.,1.2,0.,1.2,0.,1.2,0.,1.2
1981-08-24 15:04:59.080 ,5,0,0.,1.2,0.,1.2,0.,1.2,0.,1.2
1981-08-24 15:05:00.280 ,5,0,0.,1.2,0.,1.2,0.,1.2,0.,1.2
1981-08-24 15:05:01.480 ,5,0,1.,1.2,0.,1.2,0.,1.2,0.,1.2
1981-08-24 15:05:02.680 ,5,0,0.,1.2,0.,1.2,0.,1.2,0.,1.2
1981-08-24 15:05:03.880 ,5,0,1.,1.2,0.,1.2,0.,1.2,0.,1.2
1981-08-24 15:05:05.080 ,5,0,0.,1.2,0.,1.2,0.,1.2,0.,1.2
1981-08-24 15:05:06.280 ,5,0,1.,1.2,0.,1.2,0.,1.2,0.,1.2
1981-08-24 15:05:07.480 ,5,0,0.,1.2,0.,1.2,0.,1.2,0.,1.2
1981-08-24 15:05:08.680 ,5,0,0.,1.2,0.,1.2,0.,1.2,0.,1.2
1981-08-24 15:05:09.880 ,5,0,2.,1.2,0.,1.2,0.,1.2,0.,1.2
1981-08-24 15:05:11.080 ,5,0,1.,1.2,0.,1.2,0.,1.2,0.,1.2
1981-08-24 15:05:12.280 ,4,0,0.,1.2,0.,1.2,0.,1.2,0.,1.2
1981-08-24 15:05:13.480 ,4,0,0.,1.2,0.,1.2,0.,1.2,0.,1.2
1981-08-24 15:05:14.680 ,4,0,0.,1.2,0.,1.2,0.,1.2,0.,1.2
1981-08-24 15:05:15.880 ,4,0,0.,1.2,0.,1.2,0.,1.2,0.,1.2
1981-08-24 15:05:17.080 ,4,0,0.,1.2,0.,1.2,0.,1.2,0.,1.2
1981-08-24 15:05:18.280 ,4,0,1.,1.2,0.,1.2,0.,1.2,0.,1.2
1981-08-24 15:05:19.480 ,4,0,1.,1.2,0.,1.2,0.,1.2,0.,1.2
1981-08-24 15:05:20.680 ,4,0,0.,1.2,0.,1.2,0.,1.2,0.,1.2
1981-08-24 15:05:21.880 ,4,0,0.,1.2,0.,1.2,0.,1.2,0.,1.2
1981-08-24 15:05:23.080 ,4,0,0.,1.2,0.,1.2,0.,1.2,0.,1.2
1981-08-24 15:05:24.280 ,4,0,0.,1.2,0.,1.2,0.,1.2,0.,1.2
1981-08-24 15:05:25.480 ,4,0,0.,1.2,0.,1.2,1.,1.2,0.,1.2
1981-08-24 15:05:26.680 ,4,0,0.,1.2,0.,1.2,0.,1.2,0.,1.2
1981-08-24 15:05:27.880 ,4,0,0.,1.2,0.,1.2,0.,1.2,0.,1.2
1981-08-24 15:05:29.080 ,4,0,3.,1.2,0.,1.2,0.,1.2,0.,1.2
1981-08-24 15:05:30.280 ,4,0,0.,1.2,0.,1.2,0.,1.2,0.,1.2
1981-08-24 15:05:31.480 ,4,0,1.,1.2,0.,1.2,0.,1.2,0.,1.2
1981-08-24 15:05:32.680 ,4,0,0.,1.2,0.,1.2,0.,1.2,0.,1.2
1981-08-24 15:05:33.880 ,4,0,1.,1.2,0.,1.2,0.,1.2,0.,1.2
1981-08-24 15:05:35.080 ,4,0,1.,1.2,0.,1.2,0.,1.2,0.,1.2
1981-08-24 15:05:36.280 ,3,0,0.,1.2,0.,1.2,0.,1.2,0.,1.2
1981-08-24 15:05:37.480 ,3,0,0.,1.2,0.,1.2,0.,1.2,0.,1.2
1981-08-24 15:05:38.680 ,3,0,0.,1.2,0.,1.2,0.,1.2,0.,1.2
1981-08-24 15:05:39.880 ,3,0,1.,1.2,0.,1.2,0.,1.2,0.,1.2
1981-08-24 15:05:41.080 ,3,0,1.,1.2,0.,1.2,0.,1.2,0.,1.2
1981-08-24 15:05:42.280 ,3,0,0.,1.2,0.,1.2,0.,1.2,0.,1.2
1981-08-24 15:05:43.480 ,3,0,0.,1.2,0.,1.2,0.,1.2,0.,1.2
1981-08-24 15:05:44.680 ,3,0,0.,1.2,0.,1.2,0.,1.2,0.,1.2
1981-08-24 15:05:45.880 ,3,0,0.,1.2,0.,1.2,0.,1.2,0.,1.2
1981-08-24 15:05:47.080 ,3,0,0.,1.2,0.,1.2,0.,1.2,0.,1.2
1981-08-24 15:05:48.280 ,3,0,1.,1.2,0.,1.2,0.,1.2,0.,1.2
1981-08-24 15:05:49.480 ,3,0,0.,1.2,0.,1.2,0.,1.2,0.,1.2
1981-08-24 15:05:50.680 ,3,0,1.,1.2,0.,1.2,0.,1.2,0.,1.2
1981-08-24 15:05:51.880 ,3,0,0.,1.2,0.,1.2,0.,1.2,0.,1.2
1981-08-24 15:05:53.080 ,3,0,2.,1.2,0.,1.2,0.,1.2,0.,1.2
1981-08-24 15:05:54.280 ,3,0,0.,1.2,0.,1.2,0.,1.2,0.,1.2
1981-08-24 15:05:55.480 ,3,0,0.,1.2,0.,1.2,0.,1.2,0.,1.2
1981-08-24 15:05:56.680 ,3,0,0.,1.2,0.,1.2,0.,1.2,0.,1.2
1981-08-24 15:05:57.880 ,3,0,0.,1.2,0.,1.2,0.,1.2,0.,1.2
1981-08-24 15:05:59.080 ,3,0,0.,1.2,0.,1.2,0.,1.2,0.,1.2
1981-08-24 15:06:00.280 ,2,0,0.,1.2,0.,1.2,0.,1.2,0.,1.2
1981-08-24 15:06:01.480 ,2,0,1.,1.2,0.,1.2,0.,1.2,0.,1.2
1981-08-24 15:06:02.680 ,2,0,1.,1.2,0.,1.2,0.,1.2,0.,1.2
1981-08-24 15:06:03.880 ,2,0,1.,1.2,0.,1.2,0.,1.2,0.,1.2
1981-08-24 15:06:05.080 ,2,0,0.,1.2,0.,1.2,0.,1.2,0.,1.2
1981-08-24 15:06:06.280 ,2,0,0.,1.2,0.,1.2,0.,1.2,0.,1.2
1981-08-24 15:06:07.480 ,2,0,1.,1.2,0.,1.2,0.,1.2,0.,1.2
1981-08-24 15:06:08.680 ,2,0,0.,1.2,0.,1.2,0.,1.2,0.,1.2
1981-08-24 15:06:09.880 ,2,0,0.,1.2,0.,1.2,0.,1.2,0.,1.2
1981-08-24 15:06:11.080 ,2,0,0.,1.2,0.,1.2,0.,1.2,0.,1.2
1981-08-24 15:06:12.280 ,2,0,0.,1.2,0.,1.2,0.,1.2,0.,1.2
1981-08-24 15:06:13.480 ,2,0,0.,1.2,0.,1.2,0.,1.2,0.,1.2
1981-08-24 15:06:14.680 ,2,0,0.,1.2,0.,1.2,0.,1.2,0.,1.2
1981-08-24 15:06:15.880 ,2,0,0.,1.2,0.,1.2,0.,1.2,0.,1.2
1981-08-24 15:06:17.080 ,2,0,0.,1.2,0.,1.2,0.,1.2,0.,1.2
1981-08-24 15:06:18.280 ,2,0,0.,1.2,0.,1.2,0.,1.2,0.,1.2
1981-08-24 15:06:19.480 ,2,0,0.,1.2,0.,1.2,0.,1.2,0.,1.2
1981-08-24 15:06:20.680 ,2,0,1.,1.2,0.,1.2,0.,1.2,0.,1.2
1981-08-24 15:06:21.880 ,2,0,1.,1.2,0.,1.2,0.,1.2,0.,1.2
1981-08-24 15:06:23.080 ,2,0,0.,1.2,0.,1.2,0.,1.2,0.,1.2
1981-08-24 15:06:24.280 ,1,0,0.,1.2,0.,1.2,0.,1.2,0.,1.2
1981-08-24 15:06:25.480 ,1,0,0.,1.2,0.,1.2,0.,1.2,0.,1.2
1981-08-24 15:06:26.680 ,1,0,1.,1.2,0.,1.2,0.,1.2,0.,1.2
1981-08-24 15:06:27.880 ,1,0,1.,1.2,0.,1.2,0.,1.2,0.,1.2
1981-08-24 15:06:29.080 ,1,0,0.,1.2,0.,1.2,0.,1.2,0.,1.2
1981-08-24 15:06:30.280 ,1,0,0.,1.2,0.,1.2,0.,1.2,0.,1.2
1981-08-24 15:06:31.480 ,1,0,0.,1.2,0.,1.2,0.,1.2,0.,1.2
1981-08-24 15:06:32.680 ,1,0,0.,1.2,0.,1.2,0.,1.2,0.,1.2
1981-08-24 15:06:33.880 ,1,0,1.,1.2,0.,1.2,0.,1.2,0.,1.2
1981-08-24 15:06:35.080 ,1,0,1.,1.2,0.,1.2,0.,1.2,0.,1.2
1981-08-24 15:06:36.280 ,1,0,0.,1.2,0.,1.2,1.,1.2,0.,1.2
1981-08-24 15:06:37.480 ,1,0,0.,1.2,0.,1.2,0.,1.2,0.,1.2
1981-08-24 15:06:38.680 ,1,0,0.,1.2,0.,1.2,0.,1.2,0.,1.2
1981-08-24 15:06:39.880 ,1,0,0.,1.2,0.,1.2,0.,1.2,0.,1.2
1981-08-24 15:06:41.080 ,1,0,0.,1.2,0.,1.2,0.,1.2,0.,1.2
1981-08-24 15:06:42.280 ,1,0,0.,1.2,0.,1.2,0.,1.2,0.,1.2
1981-08-24 15:06:43.480 ,1,0,0.,1.2,0.,1.2,0.,1.2,0.,1.2
1981-08-24 15:06:44.680 ,1,0,1.,1.2,0.,1.2,0.,1.2,0.,1.2
1981-08-24 15:06:45.880 ,1,0,0.,1.2,0.,1.2,0.,1.2,0.,1.2
1981-08-24 15:06:47.080 ,1,0,0.,1.2,0.,1.2,0.,1.2,0.,1.2
1981-08-24 15:06:48.280 ,0,0,0.,1.2,0.,1.2,0.,1.2,0.,1.2
1981-08-24 15:06:49.480 ,0,0,0.,1.2,0.,1.2,0.,1.2,0.,1.2
1981-08-24 15:06:50.680 ,0,0,0.,1.2,0.,1.2,0.,1.2,0.,1.2
1981-08-24 15:06:51.880 ,0,0,0.,1.2,0.,1.2,0.,1.2,0.,1.2
1981-08-24 15:06:53.080 ,0,0,0.,1.2,0.,1.2,0.,1.2,0.,1.2
1981-08-24 15:06:54.280 ,0,0,0.,1.2,0.,1.2,0.,1.2,0.,1.2
1981-08-24 15:06:55.480 ,0,0,1.,1.2,0.,1.2,0.,1.2,0.,1.2
1981-08-24 15:06:56.680 ,0,0,1.,1.2,0.,1.2,0.,1.2,0.,1.2
1981-08-24 15:06:57.880 ,0,0,1.,1.2,0.,1.2,0.,1.2,0.,1.2
1981-08-24 15:06:59.080 ,0,0,1.,1.2,0.,1.2,0.,1.2,0.,1.2
1981-08-24 15:07:00.280 ,0,0,0.,1.2,0.,1.2,0.,1.2,0.,1.2
1981-08-24 15:07:01.480 ,0,0,0.,1.2,0.,1.2,0.,1.2,0.,1.2
1981-08-24 15:07:02.680 ,0,0,0.,1.2,0.,1.2,0.,1.2,0.,1.2
1981-08-24 15:07:03.880 ,0,0,1.,1.2,0.,1.2,0.,1.2,0.,1.2
1981-08-24 15:07:05.080 ,0,0,0.,1.2,0.,1.2,0.,1.2,0.,1.2
1981-08-24 15:07:06.280 ,0,0,1.,1.2,0.,1.2,0.,1.2,0.,1.2
1981-08-24 15:07:07.480 ,0,0,0.,1.2,0.,1.2,0.,1.2,0.,1.2
1981-08-24 15:07:08.680 ,0,0,2.,1.2,0.,1.2,0.,1.2,0.,1.2
1981-08-24 15:07:09.880 ,0,0,2.,1.2,0.,1.2,0.,1.2,0.,1.2
1981-08-24 15:07:11.080 ,0,0,0.,1.2,0.,1.2,0.,1.2,0.,1.2
1981-08-24 15:07:12.280 ,0,0,1.,1.2,0.,1.2,0.,1.2,0.,1.2
1981-08-24 15:07:13.480 ,0,0,0.,1.2,0.,1.2,0.,1.2,0.,1.2
1981-08-24 15:07:14.680 ,0,0,0.,1.2,0.,1.2,0.,1.2,0.,1.2
1981-08-24 15:07:15.880 ,0,0,1.,1.2,0.,1.2,0.,1.2,0.,1.2
1981-08-24 15:07:17.080 ,0,0,0.,1.2,0.,1.2,1.,1.2,0.,1.2
1981-08-24 15:07:18.280 ,0,0,0.,1.2,0.,1.2,0.,1.2,0.,1.2
1981-08-24 15:07:19.480 ,0,0,1.,1.2,0.,1.2,0.,1.2,0.,1.2
1981-08-24 15:07:20.680 ,0,0,1.,1.2,0.,1.2,1.,1.2,0.,1.2
1981-08-24 15:07:21.880 ,0,0,1.,1.2,0.,1.2,0.,1.2,0.,1.2
1981-08-24 15:07:23.080 ,0,0,0.,1.2,0.,1.2,0.,1.2,0.,1.2
1981-08-24 15:07:24.280 ,0,0,0.,1.2,0.,1.2,0.,1.2,0.,1.2
1981-08-24 15:07:25.480 ,0,0,0.,1.2,0.,1.2,0.,1.2,0.,1.2
1981-08-24 15:07:26.680 ,0,0,0.,1.2,0.,1.2,0.,1.2,0.,1.2
1981-08-24 15:07:27.880 ,0,0,0.,1.2,0.,1.2,0.,1.2,0.,1.2
1981-08-24 15:07:29.080 ,0,0,0.,1.2,0.,1.2,0.,1.2,0.,1.2
1981-08-24 15:07:30.280 ,0,0,0.,1.2,0.,1.2,0.,1.2,0.,1.2
1981-08-24 15:07:31.480 ,0,0,0.,1.2,0.,1.2,0.,1.2,0.,1.2
1981-08-24 15:07:32.680 ,0,0,0.,1.2,0.,1.2,0.,1.2,0.,1.2
1981-08-24 15:07:33.880 ,0,0,1.,1.2,0.,1.2,0.,1.2,0.,1.2
1981-08-24 15:07:35.080 ,0,0,0.,1.2,0.,1.2,0.,1.2,0.,1.2
1981-08-24 15:07:36.280 ,1,0,1.,1.2,0.,1.2,0.,1.2,0.,1.2
1981-08-24 15:07:37.480 ,1,0,2.,1.2,0.,1.2,0.,1.2,0.,1.2
1981-08-24 15:07:38.680 ,1,0,1.,1.2,0.,1.2,0.,1.2,0.,1.2
1981-08-24 15:07:39.880 ,1,0,0.,1.2,0.,1.2,0.,1.2,0.,1.2
1981-08-24 15:07:41.080 ,1,0,0.,1.2,0.,1.2,0.,1.2,0.,1.2
1981-08-24 15:07:42.280 ,1,0,1.,1.2,0.,1.2,0.,1.2,0.,1.2
1981-08-24 15:07:43.480 ,1,0,0.,1.2,0.,1.2,0.,1.2,0.,1.2
1981-08-24 15:07:44.680 ,1,0,1.,1.2,0.,1.2,0.,1.2,0.,1.2
1981-08-24 15:07:45.880 ,1,0,0.,1.2,0.,1.2,1.,1.2,0.,1.2
1981-08-24 15:07:47.080 ,1,0,0.,1.2,0.,1.2,0.,1.2,0.,1.2
1981-08-24 15:07:48.280 ,1,0,1.,1.2,0.,1.2,0.,1.2,0.,1.2
1981-08-24 15:07:49.480 ,1,0,0.,1.2,0.,1.2,0.,1.2,0.,1.2
1981-08-24 15:07:50.680 ,1,0,0.,1.2,0.,1.2,0.,1.2,0.,1.2
1981-08-24 15:07:51.880 ,1,0,0.,1.2,0.,1.2,0.,1.2,0.,1.2
1981-08-24 15:07:53.080 ,1,0,0.,1.2,0.,1.2,0.,1.2,0.,1.2
1981-08-24 15:07:54.280 ,1,0,0.,1.2,0.,1.2,0.,1.2,0.,1.2
1981-08-24 15:07:55.480 ,1,0,0.,1.2,0.,1.2,0.,1.2,0.,1.2
1981-08-24 15:07:56.680 ,1,0,0.,1.2,0.,1.2,0.,1.2,0.,1.2
1981-08-24 15:07:57.880 ,1,0,2.,1.2,0.,1.2,0.,1.2,0.,1.2
1981-08-24 15:07:59.080 ,1,0,0.,1.2,0.,1.2,0.,1.2,0.,1.2
1981-08-24 15:08:00.280 ,2,0,0.,1.2,0.,1.2,0.,1.2,0.,1.2
1981-08-24 15:08:01.480 ,2,0,0.,1.2,0.,1.2,0.,1.2,0.,1.2
1981-08-24 15:08:02.680 ,2,0,1.,1.2,0.,1.2,0.,1.2,0.,1.2
1981-08-24 15:08:03.880 ,2,0,0.,1.2,0.,1.2,0.,1.2,0.,1.2
1981-08-24 15:08:05.080 ,2,0,0.,1.2,0.,1.2,0.,1.2,0.,1.2
1981-08-24 15:08:06.280 ,2,0,2.,1.2,0.,1.2,0.,1.2,0.,1.2
1981-08-24 15:08:07.480 ,2,0,1.,1.2,0.,1.2,1.,1.2,0.,1.2
1981-08-24 15:08:08.680 ,2,0,0.,1.2,0.,1.2,0.,1.2,0.,1.2
1981-08-24 15:08:09.880 ,2,0,0.,1.2,0.,1.2,0.,1.2,0.,1.2
1981-08-24 15:08:11.080 ,2,0,1.,1.2,0.,1.2,0.,1.2,0.,1.2
1981-08-24 15:08:12.280 ,2,0,0.,1.2,0.,1.2,0.,1.2,0.,1.2
1981-08-24 15:08:13.480 ,2,0,0.,1.2,0.,1.2,0.,1.2,0.,1.2
1981-08-24 15:08:14.680 ,2,0,0.,1.2,0.,1.2,0.,1.2,0.,1.2
1981-08-24 15:08:15.880 ,2,0,1.,1.2,0.,1.2,0.,1.2,0.,1.2
1981-08-24 15:08:17.080 ,2,0,0.,1.2,0.,1.2,0.,1.2,0.,1.2
1981-08-24 15:08:18.280 ,2,0,0.,1.2,0.,1.2,0.,1.2,0.,1.2
1981-08-24 15:08:19.480 ,2,0,0.,1.2,0.,1.2,0.,1.2,0.,1.2
1981-08-24 15:08:20.680 ,2,0,0.,1.2,0.,1.2,0.,1.2,0.,1.2
1981-08-24 15:08:21.880 ,2,0,1.,1.2,0.,1.2,0.,1.2,0.,1.2
1981-08-24 15:08:23.080 ,2,0,1.,1.2,0.,1.2,0.,1.2,0.,1.2
1981-08-24 15:08:24.280 ,3,0,0.,1.2,0.,1.2,0.,1.2,0.,1.2
1981-08-24 15:08:25.480 ,3,0,1.,1.2,0.,1.2,0.,1.2,0.,1.2
1981-08-24 15:08:26.680 ,3,0,0.,1.2,0.,1.2,0.,1.2,0.,1.2
1981-08-24 15:08:27.880 ,3,0,0.,1.2,0.,1.2,0.,1.2,0.,1.2
1981-08-24 15:08:29.080 ,3,0,0.,1.2,0.,1.2,0.,1.2,0.,1.2
1981-08-24 15:08:30.280 ,3,0,0.,1.2,0.,1.2,0.,1.2,0.,1.2
1981-08-24 15:08:31.480 ,3,0,0.,1.2,0.,1.2,0.,1.2,0.,1.2
1981-08-24 15:08:32.680 ,3,0,0.,1.2,0.,1.2,0.,1.2,0.,1.2
1981-08-24 15:08:33.880 ,3,0,0.,1.2,0.,1.2,0.,1.2,0.,1.2
1981-08-24 15:08:35.080 ,3,0,0.,1.2,0.,1.2,0.,1.2,0.,1.2
1981-08-24 15:08:36.280 ,3,0,0.,1.2,0.,1.2,0.,1.2,0.,1.2
1981-08-24 15:08:37.480 ,3,0,0.,1.2,0.,1.2,0.,1.2,0.,1.2